This demonstration page uses our WeatherBlox Daily Observations layout. Learn more.

Left ArrowRight Arrow

44.8408, -93.29828

Hourly Observations for September 14, 2016

Temp ( °F °C ) Dew Point ( °F °C ) Humidity (%) Winds ( mph kmh ) Pressure ( in mb ) Visibility ( mi km ) Precip ( " mm )
12:53 am 00:53 Mostly Cloudy 56 13.3 45 7.2 67 67 N 8 13 30.29 1026 10 16 0.00 0.00
1:53 am 01:53 Partly Cloudy 53 11.7 44 6.7 72 72 N 8 13 30.31 1026 10 16 0.00 0.00
2:53 am 02:53 Mostly Clear 52 11.1 43 6.1 72 72 N 8 13 30.31 1026 10 16 0.00 0.00
3:53 am 03:53 Mostly Clear 50 10 42 5.6 74 74 N 6 9 30.31 1027 10 16 0.00 0.00
4:53 am 04:53 Clear 49 9.4 42 5.6 77 77 N 5 7 30.31 1026 10 16 0.00 0.00
5:53 am 05:53 Mostly Clear 48 8.9 42 5.6 80 80 N 6 9 30.32 1027 10 16 0.00 0.00
6:53 am 06:53 Mostly Sunny 48 8.9 42 5.6 80 80 N 5 7 30.33 1027 10 16 0.00 0.00
7:53 am 07:53 Mostly Sunny 50 10 44 6.7 80 80 NNE 5 7 30.33 1027 10 16 0.00 0.00
8:53 am 08:53 Mostly Sunny 53 11.7 45 7.2 74 74 NNE 3 6 30.34 1028 10 16 0.00 0.00
9:53 am 09:53 Sunny 56 13.3 46 7.8 70 70 VRB 5 7 30.35 1028 10 16 0.00 0.00
10:53 am 10:53 Sunny 60 15.6 47 8.3 62 62 ESE 6 9 30.34 1027 10 16 0.00 0.00
11:53 am 11:53 Mostly Sunny 62 16.7 47 8.3 58 58 VRB 5 7 30.32 1027 10 16 0.00 0.00
12:53 pm 12:53 Sunny 64 17.8 47 8.3 54 54 ENE 6 9 30.31 1026 10 16 0.00 0.00
1:53 pm 13:53 Sunny 65 18.3 47 8.3 52 52 SSE 5 7 30.28 1026 10 16 0.00 0.00
2:53 pm 14:53 Sunny 68 20 47 8.3 47 47 Calm 30.26 1025 10 16 0.00 0.00
3:53 pm 15:53 Sunny 68 20 48 8.9 49 49 Calm 30.24 1024 10 16 0.00 0.00
4:53 pm 16:53 Sunny 69 20.6 47 8.3 45 45 Calm 30.23 1024 10 16 0.00 0.00
5:53 pm 17:53 Sunny 68 20 46 7.8 45 45 VRB 5 7 30.22 1023 10 16 0.00 0.00
6:53 pm 18:53 Sunny 67 19.4 48 8.9 51 51 ESE 5 7 30.21 1023 10 16 0.00 0.00
7:53 pm 19:53 Clear 65 18.3 48 8.9 54 54 ESE 9 15 30.20 1023 10 16 0.00 0.00
8:53 pm 20:53 Clear 64 17.8 49 9.4 58 58 ESE 8 13 30.21 1023 10 16 0.00 0.00
9:53 pm 21:53 Mostly Clear 62 16.7 49 9.4 62 62 SE 7 11 30.22 1023 10 16 0.00 0.00
10:53 pm 22:53 Mostly Clear 60 15.6 50 10 70 70 SE 7 11 30.21 1023 10 16 0.00 0.00
11:53 pm 23:53 Mostly Clear 58 14.4 50 10 75 75 SE 6 9 30.21 1023 10 16 0.00 0.00

Powered by AerisWeather